Terminal Aerodrome Forecast
Issued by NWS Jackson, KY

Home | Current Version | Previous Version | Text Only | Print | Product List | Glossary On
Versions: 1 2 3 4 5 6 7 8 9 10 11 12
000
FTUS43 KJKL 210500
TAFJKL
TAF
KJKL 210531Z 2106/2206 VRB03KT P6SM SCT250
     FM211900 25006KT P6SM SCT050 BKN100
     FM220200 26008KT P6SM VCSH SCT030 BKN050=

USA.gov is the U.S. government's official web portal to all federal, state and local government web resources and services.